• In Uzbekistan
  • List of Countries
  • For 7 days
  • Water Temperature
  • Satellite Maps
  • Weather Map
  • Weather Widgets
  • user-avatar
    Login

    Hourly Weather Monastir

    Today, 23 October, Tuesday

    Time Temperature Precipitation Wind Pressure Humidity
    00:00 +20°C° 0 mm 7 mps 757 mmHg 63%
    01:00 +20°C° 0 mm 7 mps 757 mmHg 63%
    02:00 +18°C° 0 mm 8 mps 757 mmHg 61%
    03:00 +18°C° 0 mm 8 mps 756 mmHg 60%
    04:00 +18°C° 0 mm 9 mps 756 mmHg 59%
    05:00 +18°C° 0 mm 9 mps 756 mmHg 60%
    06:00 +18°C° 0 mm 10 mps 757 mmHg 61%
    07:00 +18°C° 0 mm 10 mps 757 mmHg 62%
    08:00 +19°C° 0.1 mm 11 mps 757 mmHg 59%
    09:00 +19°C° 0.1 mm 12 mps 757 mmHg 56%
    10:00 +20°C° 0.1 mm 13 mps 757 mmHg 52%
    11:00 +22°C° 0.1 mm 13 mps 757 mmHg 51%
    12:00 +23°C° 0.1 mm 13 mps 757 mmHg 49%
    13:00 +24°C° 0.1 mm 13 mps 757 mmHg 47%
    14:00 +24°C° 0 mm 13 mps 757 mmHg 48%
    15:00 +23°C° 0 mm 13 mps 757 mmHg 49%
    16:00 +23°C° 0 mm 13 mps 757 mmHg 50%
    17:00 +23°C° 0 mm 12 mps 757 mmHg 54%
    18:00 +22°C° 0 mm 11 mps 758 mmHg 59%
    19:00 +21°C° 0 mm 11 mps 759 mmHg 63%
    20:00 +21°C° 0.1 mm 10 mps 759 mmHg 64%
    21:00 +19°C° 0.1 mm 9 mps 759 mmHg 66%
    22:00 +19°C° 0.1 mm 9 mps 759 mmHg 67%
    23:00 +20°C° 0 mm 8 mps 759 mmHg 67%

    Tomorrow, 24 October, Wednesday

    Time Temperature Precipitation Wind Pressure Humidity
    00:00 +18°C° 0 mm 8 mps 759 mmHg 68%
    01:00 +18°C° 0 mm 8 mps 759 mmHg 68%
    02:00 +18°C° 0 mm 8 mps 759 mmHg 69%
    03:00 +18°C° 0 mm 7 mps 759 mmHg 69%
    04:00 +18°C° 0 mm 7 mps 759 mmHg 70%
    05:00 +17°C° 0 mm 7 mps 759 mmHg 71%
    06:00 +17°C° 0 mm 7 mps 759 mmHg 72%
    07:00 +17°C° 0 mm 6 mps 759 mmHg 73%
    08:00 +18°C° 0 mm 7 mps 759 mmHg 67%
    09:00 +21°C° 0 mm 8 mps 759 mmHg 62%
    10:00 +22°C° 0 mm 8 mps 759 mmHg 56%
    11:00 +23°C° 0 mm 8 mps 759 mmHg 52%
    12:00 +24°C° 0 mm 8 mps 759 mmHg 47%
    13:00 +26°C° 0 mm 8 mps 758 mmHg 43%
    14:00 +26°C° 0 mm 8 mps 758 mmHg 43%
    15:00 +26°C° 0 mm 8 mps 758 mmHg 43%
    16:00 +26°C° 0 mm 8 mps 758 mmHg 42%
    17:00 +24°C° 0 mm 7 mps 758 mmHg 47%
    18:00 +23°C° 0 mm 7 mps 758 mmHg 51%
    19:00 +22°C° 0 mm 6 mps 758 mmHg 55%
    20:00 +22°C° 0 mm 6 mps 759 mmHg 58%
    21:00 +21°C° 0 mm 5 mps 759 mmHg 61%
    22:00 +20°C° 0 mm 5 mps 759 mmHg 64%
    23:00 +20°C° 0 mm 4 mps 759 mmHg 66%

    Day after tomorrow, 25 October, Thursday

    Time Temperature Precipitation Wind Pressure Humidity
    00:00 +20°C° 0 mm 4 mps 759 mmHg 68%
    01:00 +19°C° 0 mm 4 mps 759 mmHg 70%
    02:00 +19°C° 0 mm 4 mps 759 mmHg 71%
    03:00 +19°C° 0 mm 4 mps 759 mmHg 71%
    04:00 +19°C° 0 mm 4 mps 759 mmHg 72%
    05:00 +18°C° 0 mm 4 mps 759 mmHg 72%
    06:00 +18°C° 0 mm 4 mps 759 mmHg 72%
    07:00 +18°C° 0 mm 3 mps 759 mmHg 71%
    08:00 +19°C° 0 mm 3 mps 760 mmHg 66%
    09:00 +21°C° 0 mm 4 mps 760 mmHg 61%
    10:00 +22°C° 0 mm 4 mps 761 mmHg 56%
    11:00 +24°C° 0 mm 3 mps 760 mmHg 53%
    12:00 +24°C° 0 mm 3 mps 760 mmHg 51%
    13:00 +25°C° 0 mm 2 mps 760 mmHg 48%
    14:00 +25°C° 0 mm 2 mps 760 mmHg 46%
    15:00 +26°C° 0 mm 2 mps 760 mmHg 45%
    16:00 +26°C° 0 mm 2 mps 759 mmHg 44%
    17:00 +25°C° 0 mm 2 mps 759 mmHg 46%
    18:00 +25°C° 0 mm 2 mps 760 mmHg 49%
    19:00 +24°C° 0 mm 2 mps 760 mmHg 52%
    20:00 +24°C° 0 mm 2 mps 760 mmHg 55%
    21:00 +23°C° 0 mm 2 mps 760 mmHg 57%
    22:00 +23°C° 0 mm 2 mps 760 mmHg 60%
    23:00 +23°C° 0 mm 2 mps 760 mmHg 62%

    26 October, Friday

    Time Temperature Precipitation Wind Pressure Humidity
    00:00 +21°C° 0 mm 2 mps 760 mmHg 64%
    01:00 +21°C° 0 mm 2 mps 760 mmHg 66%
    02:00 +20°C° 0 mm 2 mps 760 mmHg 66%
    03:00 +20°C° 0 mm 2 mps 760 mmHg 66%
    04:00 +20°C° 0 mm 3 mps 759 mmHg 67%
    05:00 +20°C° 0 mm 3 mps 759 mmHg 65%
    06:00 +20°C° 0 mm 3 mps 759 mmHg 64%
    07:00 +19°C° 0 mm 3 mps 759 mmHg 63%
    08:00 +21°C° 0 mm 4 mps 759 mmHg 56%
    09:00 +22°C° 0 mm 5 mps 760 mmHg 48%
    10:00 +25°C° 0 mm 5 mps 760 mmHg 41%
    11:00 +26°C° 0 mm 6 mps 759 mmHg 37%
    12:00 +27°C° 0 mm 6 mps 759 mmHg 34%
    13:00 +28°C° 0 mm 6 mps 758 mmHg 31%
    14:00 +28°C° 0 mm 6 mps 758 mmHg 30%
    15:00 +28°C° 0 mm 6 mps 758 mmHg 30%
    16:00 +28°C° 0 mm 6 mps 757 mmHg 30%
    17:00 +27°C° 0 mm 6 mps 757 mmHg 33%
    18:00 +26°C° 0 mm 6 mps 758 mmHg 37%
    19:00 +24°C° 0 mm 6 mps 758 mmHg 40%
    20:00 +23°C° 0 mm 6 mps 758 mmHg 42%
    21:00 +23°C° 0 mm 6 mps 758 mmHg 44%
    22:00 +22°C° 0 mm 6 mps 758 mmHg 46%
    23:00 +22°C° 0 mm 6 mps 758 mmHg 47%

    27 October, Saturday

    Time Temperature Precipitation Wind Pressure Humidity
    00:00 +22°C° 0 mm 6 mps 758 mmHg 47%
    01:00 +21°C° 0 mm 6 mps 757 mmHg 47%
    02:00 +21°C° 0 mm 6 mps 757 mmHg 47%
    03:00 +21°C° 0 mm 6 mps 757 mmHg 47%
    04:00 +20°C° 0 mm 5 mps 756 mmHg 47%
    05:00 +20°C° 0 mm 6 mps 756 mmHg 48%
    06:00 +20°C° 0 mm 6 mps 756 mmHg 49%
    07:00 +20°C° 0 mm 6 mps 756 mmHg 49%
    08:00 +22°C° 0 mm 7 mps 756 mmHg 44%
    09:00 +24°C° 0 mm 8 mps 756 mmHg 40%
    10:00 +27°C° 0 mm 8 mps 756 mmHg 35%
    11:00 +27°C° 0 mm 9 mps 756 mmHg 33%
    12:00 +28°C° 0 mm 9 mps 755 mmHg 32%
    13:00 +29°C° 0 mm 9 mps 754 mmHg 30%
    14:00 +29°C° 0 mm 9 mps 754 mmHg 31%
    15:00 +29°C° 0 mm 9 mps 754 mmHg 31%
    16:00 +29°C° 0 mm 8 mps 753 mmHg 31%
    17:00 +29°C° 0 mm 7 mps 753 mmHg 34%
    18:00 +28°C° 0 mm 7 mps 753 mmHg 37%
    19:00 +27°C° 0 mm 6 mps 753 mmHg 40%
    20:00 +26°C° 0 mm 5 mps 754 mmHg 42%
    21:00 +26°C° 0 mm 5 mps 754 mmHg 43%
    22:00 +25°C° 0 mm 5 mps 754 mmHg 45%
    23:00 +25°C° 0 mm 4 mps 754 mmHg 45%

    28 October, Sunday

    Time Temperature Precipitation Wind Pressure Humidity
    00:00 +23°C° 0 mm 4 mps 753 mmHg 45%
    01:00 +24°C° 0 mm 3 mps 753 mmHg 45%
    02:00 +24°C° 0 mm 3 mps 753 mmHg 47%
    03:00 +22°C° 0 mm 3 mps 753 mmHg 49%
    04:00 +23°C° 0 mm 2 mps 752 mmHg 51%
    05:00 +23°C° 0.1 mm 2 mps 752 mmHg 54%
    06:00 +23°C° 0.1 mm 2 mps 752 mmHg 57%
    07:00 +21°C° 0.1 mm 2 mps 752 mmHg 59%
    08:00 +21°C° 0.2 mm 2 mps 752 mmHg 59%
    09:00 +22°C° 0.2 mm 3 mps 752 mmHg 59%
    10:00 +22°C° 0.2 mm 4 mps 752 mmHg 59%
    11:00 +22°C° 0.7 mm 4 mps 752 mmHg 61%
    12:00 +21°C° 0.7 mm 5 mps 751 mmHg 63%
    13:00 +21°C° 0.7 mm 5 mps 751 mmHg 65%
    14:00 +21°C° 0.3 mm 5 mps 750 mmHg 65%
    15:00 +21°C° 0.3 mm 6 mps 750 mmHg 65%
    16:00 +22°C° 0.3 mm 6 mps 750 mmHg 65%
    17:00 +21°C° 0.3 mm 6 mps 749 mmHg 67%
    18:00 +21°C° 0.3 mm 6 mps 749 mmHg 70%
    19:00 +21°C° 0.3 mm 6 mps 749 mmHg 72%
    20:00 +21°C° 0 mm 6 mps 749 mmHg 72%
    21:00 +21°C° 0 mm 6 mps 749 mmHg 72%
    22:00 +21°C° 0 mm 6 mps 749 mmHg 72%
    23:00 +21°C° 0 mm 6 mps 748 mmHg 72%

    29 October, Monday

    Time Temperature Precipitation Wind Pressure Humidity
    00:00 +20°C° 0 mm 7 mps 747 mmHg 72%
    01:00 +20°C° 0 mm 7 mps 747 mmHg 72%
    02:00 +20°C° 0 mm 7 mps 746 mmHg 72%
    03:00 +20°C° 0 mm 7 mps 746 mmHg 72%
    04:00 +20°C° 0 mm 7 mps 745 mmHg 71%
    05:00 +20°C° 0 mm 7 mps 745 mmHg 70%
    06:00 +20°C° 0 mm 8 mps 745 mmHg 69%
    07:00 +20°C° 0 mm 8 mps 745 mmHg 69%
    08:00 +21°C° 0 mm 9 mps 745 mmHg 56%
    09:00 +22°C° 0 mm 11 mps 745 mmHg 43%
    10:00 +23°C° 0 mm 13 mps 745 mmHg 30%
    11:00 +22°C° 0 mm 13 mps 746 mmHg 30%
    12:00 +22°C° 0 mm 13 mps 746 mmHg 30%
    13:00 +22°C° 0 mm 13 mps 746 mmHg 29%
    14:00 +21°C° 0 mm 12 mps 747 mmHg 35%
    15:00 +18°C° 0 mm 11 mps 747 mmHg 40%
    16:00 +17°C° 0 mm 11 mps 748 mmHg 46%
    17:00 +16°C° 0 mm 10 mps 749 mmHg 45%
    18:00 +16°C° 0 mm 9 mps 750 mmHg 45%
    19:00 +15°C° 0 mm 9 mps 751 mmHg 45%
    20:00 +15°C° 0 mm 8 mps 751 mmHg 46%
    21:00 +15°C° 0 mm 7 mps 752 mmHg 47%
    22:00 +14°C° 0 mm 7 mps 753 mmHg 48%
    23:00 +14°C° 0 mm 6 mps 753 mmHg 49%
    Show more